Location: Te Maire Creek
(41.1333°S, 175.9167°E)
Time: 16:32:02
(UTC+00:00)

Geosat - Pass Details

Date: 19 May 2024
Orbit: 760 x 763 km, 108.1° (Epoch: 12 June)

Event Time Altitude Azimuth Distance (km) Brightness Sun altitude
Rises 17:52:05 0° 157° (SSE) 3,258 7.4 -16.8°
Reaches altitude 10° 17:54:23 10° 159° (SSE) 2,325 6.6 -16.4°
Maximum altitude 17:59:24 67° 240° (WSW) 836 3.9 -15.5°
Drops below altitude 10° 18:04:23 10° 322° (NW) 2,298 6.2 -14.5°
Sets 18:06:39 0° 324° (NW) 3,217 7.0 -14.1°
